Regional Weather Roundup
Issued by NWS

Home | Current Version | Previous Version | Graphics & Text | Print | Product List | Glossary On
Versions: 1 2 3 4 5 6 7 8 9 10 11 12 13 14 15 16 17 18 19 20 21 22 23 24 25 26 27 28 29 30 31 32 33 34 35 36 37 38 39 40 41 42 43 44 45 46 47 48 49 50
000
ASUS43 KLOT 200758
RWRIL

ILLINOIS REGIONAL WEATHER ROUNDUP
NATIONAL WEATHER SERVICE CHICAGO/ROMEOVILLE IL
300 AM CDT SUN APR 20 2014

NOTE: "FAIR" INDICATES FEW OR NO CLOUDS BELOW 12,000 FEET WITH NO
SIGNIFICANT WEATHER AND/OR OBSTRUCTIONS TO VISIBILITY.

* THESE STATIONS ARE NOT UNDER NWS QUALITY CONTROL. THEY ALSO MAY NOT
  REPORT WEATHER SUCH AS PRECIPITATION OR FOG.

ILZ001-002-007-009-015-016-024-200900-
NORTHWEST ILLINOIS

CITY           SKY/WX    TMP DP  RH WIND       PRES   REMARKS
MOLINE         CLEAR     55  38  52 S9        30.14F
$$

ILZ003-004-008-010-011-017-018-200900-
NORTH CENTRAL ILLINOIS

CITY           SKY/WX    TMP DP  RH WIND       PRES   REMARKS
ROCKFORD       NOT AVBL
$$

ILZ005-006-012>014-019>023-200900-
NORTHEAST ILLINOIS

CITY           SKY/WX    TMP DP  RH WIND       PRES   REMARKS
CHICAGO-OHARE  PTCLDY    47  30  51 S7        30.22F
CHICAGO-MIDWAY PTCLDY    51  30  44 SE8       30.24R
AURORA         CLEAR     47  35  63 SE9       30.22S
WAUKEGAN       PTCLDY    47  34  60 SE10      30.22S
DUPAGE AIRPORT CLEAR     46  34  62 S5        30.22S
WHEELING       PTCLDY    46  33  60 SE3       30.23F
NORTHERLY ISL    N/A     46  39  76 CALM        N/A
$$

LMZ740>746-200900-
SOUTHERN LAKE MICHIGAN

STATION/POSITION SKY/WX   TEMP    WIND        PRES    VSBY  WAVE
                          AIR SEA DIR/SP/G                  HT/PER
                          (F)     (DEG/KT/KT) (MB)    (MI)  (FT/S)
WAUKEGAN HARBOR            44     160/ 10/ 11 1025.1S
HARRISON CRIB              48     150/ 15/ 18   N/A
BURNHAM HARBOR             46      70/  2/  8   N/A
CALUMET HARBOR             51     150/  7/ 11 1024.7S
MICHIGAN CITY              49     120/ 13/ 16   N/A
$$

ILZ025>027-034>036-040-047-049-050-058-095>099-200900-
WEST-CENTRAL ILLINOIS

CITY           SKY/WX    TMP DP  RH WIND       PRES   REMARKS
$$

ILZ028>032-037-038-041>044-048-051>054-059>061-200900-
CENTRAL ILLINOIS

CITY           SKY/WX    TMP DP  RH WIND       PRES   REMARKS
PEORIA         NOT AVBL
SPRINGFIELD    CLEAR     56  36  47 SE6       30.19S
TAYLORVILLE    NOT AVBL
$$

ILZ033-039-045-046-055>057-062-063-200900-
EAST-CENTRAL ILLINOIS

CITY           SKY/WX    TMP DP  RH WIND       PRES   REMARKS
CHAMPAIGN      CLEAR     45  38  76 E9        30.22S
MATTOON        CLEAR     53  38  56 SE5       30.20F
$$

ILZ079-100>102-200900-
SOUTHWEST ILLINOIS

CITY           SKY/WX    TMP DP  RH WIND       PRES   REMARKS
CAHOKIA*       PTCLDY    51  43  74 CALM      30.18S
$$

ILZ064>066-069>071-074>076-080>082-084>086-088>090-092>094-200900-
SOUTH-CENTRAL ILLINOIS

CITY           SKY/WX    TMP DP  RH WIND       PRES   REMARKS
CARBONDALE     CLEAR     47  44  90 NW5       30.18R
$$

ILZ067-068-072-073-078-083-087-091-200900-
SOUTHEAST ILLINOIS

CITY           SKY/WX    TMP DP  RH WIND       PRES   REMARKS
$$

ABBREVIATIONS USED IN REMARKS
   TC - TEMPERATURE IN CELSIUS
  WCI - WIND CHILL INDEX
   HX - HEAT INDEX
  VSB - VISIBILITY
$$




USA.gov is the U.S. government's official web portal to all federal, state and local government web resources and services.